FW4608 Weather Reports


time (UTC)temp
C
wind
direction
speed
KPH
gust
KPH
rain 1hr
cm
rain 24hr
cm
rain mn
cm
humidity
%
barometer
mb
20260508093155 22 246 0.0 0.0 0.00 0.00 0.00 91 1012.5
20260508092535 22 246 0.0 0.0 0.00 0.00 0.00 91 1012.4
20260508092035 22 246 0.0 0.0 0.00 0.00 0.00 91 1012.4
20260508091543 22 245 0.0 0.0 0.00 0.00 0.00 91 1012.3
20260508091033 22 246 0.0 0.0 0.00 0.00 0.00 91 1012.4
20260508090533 22 245 0.0 0.0 0.00 0.00 0.00 91 1012.3
20260508090031 22 245 0.0 0.0 0.00 0.00 0.00 91 1012.3
20260508090012 22 246 0.0 0.0 0.00 0.00 0.00 91 1012.4
20260508085513 22 246 0.0 0.0 0.00 0.00 0.00 91 1012.4
20260508085012 23 245 0.0 1.6 0.00 0.00 0.00 91 1012.3
20260508084512 23 246 0.0 1.6 0.00 0.00 0.00 91 1012.2
20260508084010 23 240 0.0 1.6 0.00 0.00 0.00 91 1012.4
20260508083513 23 240 0.0 1.6 0.00 0.00 0.00 91 1012.3
20260508083011 23 242 0.0 3.2 0.00 0.00 0.00 90 1012.4
20260508082507 23 242 0.0 3.2 0.00 0.00 0.00 90 1012.3
20260508082006 23 239 0.0 0.0 0.00 0.00 0.00 90 1012.4
20260508081505 23 239 0.0 1.6 0.00 0.00 0.00 90 1012.3
20260508081008 23 239 0.0 1.6 0.00 0.00 0.00 90 1012.4
20260508080504 23 239 0.0 1.6 0.00 0.00 0.00 90 1012.4
20260508080007 23 239 0.0 1.6 0.00 0.00 0.00 90 1012.4
20260508075600 23 243 0.0 1.6 0.00 0.00 0.00 90 1012.4
20260508075101 23 219 0.0 1.6 0.00 0.00 0.00 90 1012.4
20260508074604 23 219 0.0 1.6 0.00 0.00 0.00 90 1012.4
20260508074059 23 231 0.0 1.6 0.00 0.00 0.00 90 1012.5
20260508073559 23 231 0.0 4.8 0.00 0.00 0.00 90 1012.5
20260508073056 23 229 0.0 4.8 0.00 0.00 0.00 89 1012.6
20260508072553 23 243 0.0 4.8 0.00 0.00 0.00 89 1012.5
20260508072053 23 237 0.0 6.4 0.00 0.00 0.00 89 1012.7
20260508071555 23 233 0.0 6.4 0.00 0.00 0.00 89 1012.7
20260508071047 23 273 1.6 6.4 0.00 0.00 0.00 89 1012.9
20260508070544 23 234 1.6 6.4 0.00 0.00 0.00 89 1012.8
20260508070044 23 246 0.0 3.2 0.00 0.00 0.00 89 1012.8
20260508065545 23 244 0.0 4.8 0.00 0.00 0.00 89 1012.8
20260508065041 23 245 0.0 4.8 0.00 0.00 0.00 89 1012.8
20260508064540 23 238 0.0 6.4 0.00 0.00 0.00 89 1012.9
20260508064038 24 238 0.0 6.4 0.00 0.00 0.00 89 1012.9
20260508063538 24 227 0.0 6.4 0.00 0.00 0.00 89 1012.9
20260508063040 24 214 0.0 4.8 0.00 0.00 0.00 89 1012.9
20260508062535 24 259 0.0 4.8 0.00 0.00 0.00 88 1013.1
20260508062149 24 288 0.0 4.8 0.00 0.00 0.00 88 1013.0
20260508061633 24 275 0.0 6.4 0.00 0.00 0.00 88 1013.1
20260508061033 24 257 1.6 6.4 0.00 0.00 0.00 88 1013.1
20260508060539 24 313 0.0 12.9 0.00 0.00 0.00 88 1013.0
20260508060028 24 229 1.6 12.9 0.00 0.00 0.00 88 1013.1
20260508055526 24 191 0.0 4.8 0.00 0.00 0.00 88 1013.1
20260508055028 24 236 0.0 4.8 0.00 0.00 0.00 87 1013.3
20260508054526 24 246 0.0 4.8 0.00 0.00 0.00 87 1013.3
20260508054024 24 243 0.0 4.8 0.00 0.00 0.00 87 1013.3
20260508053523 24 328 0.0 6.4 0.00 0.00 0.00 87 1013.3
20260508053021 25 264 0.0 4.8 0.00 0.00 0.00 87 1013.2
20260508052637 25 262 0.0 6.4 0.00 0.00 0.00 87 1013.2
20260508052019 25 229 1.6 8.0 0.00 0.00 0.00 87 1013.2
20260508051528 25 240 1.6 9.7 0.00 0.00 0.00 87 1013.2
20260508051018 25 243 3.2 9.7 0.00 0.00 0.00 87 1013.2
20260508050516 25 238 0.0 6.4 0.00 0.00 0.00 87 1013.2
20260508050013 25 233 0.0 14.5 0.00 0.00 0.00 87 1013.3
20260508045616 25 300 3.2 14.5 0.00 0.00 0.00 86 1013.4
20260508045052 25 249 3.2 14.5 0.00 0.00 0.00 86 1013.3
20260508044550 25 297 3.2 14.5 0.00 0.00 0.00 86 1013.3
20260508044053 25 245 3.2 14.5 0.00 0.00 0.00 86 1013.4
20260508043554 25 266 1.6 14.5 0.00 0.00 0.00 86 1013.5
20260508043103 25 292 3.2 6.4 0.00 0.00 0.00 86 1013.4
20260508042552 25 283 0.0 4.8 0.00 0.00 0.00 86 1013.3
20260508042045 25 283 0.0 9.7 0.00 0.00 0.00 85 1013.2
20260508041544 25 262 3.2 9.7 0.00 0.00 0.00 85 1013.3
20260508041046 25 221 1.6 11.3 0.00 0.00 0.00 85 1013.4
20260508040544 25 214 1.6 9.7 0.00 0.00 0.00 84 1013.4
20260508040044 25 243 1.6 14.5 0.00 0.00 0.00 84 1013.3
20260508035539 25 296 4.8 16.1 0.00 0.00 0.00 84 1013.2
20260508035038 26 276 4.8 16.1 0.00 0.00 0.00 83 1013.3
20260508034539 26 224 0.0 12.9 0.00 0.00 0.00 83 1013.3
20260508034036 26 293 1.6 9.7 0.00 0.00 0.00 83 1013.1
20260508033539 26 246 0.0 9.7 0.00 0.00 0.00 83 1013.2
20260508033038 26 267 1.6 11.3 0.00 0.00 0.00 82 1013.2
20260508032538 26 265 0.0 11.3 0.00 0.00 0.00 82 1013.2
20260508032005 26 263 0.0 9.7 0.00 0.00 0.00 82 1013.1
20260508031508 26 247 0.0 9.7 0.00 0.00 0.00 81 1013.1
20260508031005 26 289 0.0 11.3 0.00 0.00 0.00 80 1013.0
20260508030503 26 275 0.0 11.3 0.00 0.00 0.00 80 1013.0
20260508030003 26 141 3.2 11.3 0.00 0.00 0.00 80 1012.9
20260508025510 26 277 0.0 14.5 0.00 0.00 0.00 79 1012.9
20260508025003 26 269 1.6 11.3 0.00 0.00 0.00 79 1012.8
20260508023558 27 275 1.6 9.7 0.00 0.00 0.00 78 1012.7
20260508023101 27 295 1.6 11.3 0.00 0.00 0.00 77 1012.9
20260508022057 27 229 1.6 6.4 0.00 0.00 0.00 75 1012.7
20260508021550 27 217 1.6 4.8 0.00 0.00 0.00 74 1012.6
20260508021049 27 321 0.0 9.7 0.00 0.00 0.00 73 1012.6
20260508020551 27 305 1.6 9.7 0.00 0.00 0.00 73 1012.6
20260508020048 27 250 0.0 6.4 0.00 0.00 0.00 72 1012.5
20260508015548 27 259 0.0 6.4 0.00 0.00 0.00 72 1012.5
20260508015051 27 243 0.0 4.8 0.00 0.00 0.00 72 1012.4
20260508014547 27 256 0.0 3.2 0.00 0.00 0.00 71 1012.3
20260508014050 27 248 0.0 4.8 0.00 0.00 0.00 70 1012.3
20260508013546 28 230 0.0 9.7 0.00 0.00 0.00 69 1012.2
20260508013047 28 243 3.2 9.7 0.00 0.00 0.00 70 1012.3
20260508012550 28 227 0.0 9.7 0.00 0.00 0.00 69 1012.4
20260508012031 28 272 1.6 8.0 0.00 0.00 0.00 69 1012.2
20260508011530 28 192 0.0 8.0 0.00 0.00 0.00 69 1012.0
20260508011026 28 239 3.2 8.0 0.00 0.00 0.00 68 1012.0
20260508010528 28 250 1.6 6.4 0.00 0.00 0.00 67 1011.7
20260508010029 28 244 1.6 6.4 0.00 0.00 0.00 67 1011.8
20260508005527 28 264 0.0 8.0 0.00 0.00 0.00 67 1011.9
20260508005001 28 304 1.6 9.7 0.00 0.00 0.00 66 1011.7
20260508004603 28 232 1.6 9.7 0.00 0.00 0.00 65 1011.7
20260508004107 28 256 1.6 11.3 0.00 0.00 0.00 65 1011.5
20260508003557 28 243 1.6 8.0 0.00 0.00 0.00 65 1011.6
20260508002603 29 221 1.6 9.7 0.00 0.00 0.00 64 1011.7
20260508002057 29 243 1.6 8.0 0.00 0.00 0.00 62 1011.7
20260508001555 29 133 0.0 8.0 0.00 0.00 0.00 61 1011.5
20260508001054 29 251 0.0 12.9 0.00 0.00 0.00 61 1011.8
20260508000556 29 256 0.0 12.9 0.00 0.00 0.00 61 1011.7
20260508000052 30 312 3.2 12.9 0.00 0.00 0.00 60 1011.7
20260507235655 30 237 4.8 12.9 0.00 0.00 0.00 59 1011.7
20260507235051 30 225 0.0 8.0 0.00 0.00 0.00 61 1011.7
20260507234554 30 221 0.0 9.7 0.00 0.00 0.00 60 1011.7
20260507234052 30 250 1.6 9.7 0.00 0.00 0.00 60 1011.5
20260507233552 30 262 3.2 8.0 0.00 0.00 0.00 59 1011.4
20260507233047 30 245 1.6 6.4 0.00 0.00 0.00 58 1011.4
20260507232547 30 253 1.6 8.0 0.00 0.00 0.00 57 1011.3
20260507232046 30 231 3.2 8.0 0.00 0.00 0.00 57 1011.2
20260507231550 30 248 1.6 8.0 0.00 0.00 0.00 56 1011.2
20260507231050 30 234 0.0 8.0 0.00 0.00 0.00 55 1011.3
20260507230543 31 251 1.6 9.7 0.00 0.00 0.00 54 1011.2
20260507230042 31 243 3.2 9.7 0.00 0.00 0.00 54 1011.1
20260507225544 31 248 1.6 9.7 0.00 0.00 0.00 55 1011.1
20260507225041 31 224 3.2 9.7 0.00 0.00 0.00 56 1011.0
20260507224541 31 240 3.2 8.0 0.00 0.00 0.00 58 1011.1
20260507224154 31 233 3.2 8.0 0.00 0.00 0.00 57 1010.9
20260507223539 31 225 0.0 8.0 0.00 0.00 0.00 58 1010.6
20260507223036 31 264 3.2 9.7 0.00 0.00 0.00 57 1010.5
20260507222536 31 241 3.2 12.9 0.00 0.00 0.00 57 1010.6
20260507222039 31 259 4.8 12.9 0.00 0.00 0.00 58 1010.7
20260507221534 31 67 3.2 9.7 0.00 0.00 0.00 58 1010.6
20260507221037 31 255 3.2 12.9 0.00 0.00 0.00 59 1010.7
20260507220534 31 235 3.2 12.9 0.00 0.00 0.00 59 1010.8
20260507220032 31 253 4.8 11.3 0.00 0.00 0.00 58 1010.8
20260507215534 31 169 3.2 12.9 0.00 0.00 0.00 59 1010.8
20260507215030 31 222 3.2 12.9 0.00 0.00 0.00 58 1010.8
20260507214536 31 252 3.2 9.7 0.00 0.00 0.00 57 1011.0
20260507214027 31 304 4.8 12.9 0.00 0.00 0.00 58 1010.9
20260507213529 31 276 4.8 12.9 0.00 0.00 0.00 57 1010.8
20260507213031 31 233 3.2 11.3 0.00 0.00 0.00 58 1010.7
20260507212530 31 279 1.6 11.3 0.00 0.00 0.00 59 1011.0
20260507212125 31 245 1.6 11.3 0.00 0.00 0.00 61 1011.1
20260507211525 31 202 3.2 9.7 0.00 0.00 0.00 60 1011.0
20260507211026 30 230 1.6 9.7 0.00 0.00 0.00 64 1011.4
20260507210524 30 302 3.2 9.7 0.00 0.00 0.00 63 1011.6
20260507210023 30 212 3.2 12.9 0.00 0.00 0.00 62 1011.7
20260507205519 30 232 4.8 12.9 0.00 0.00 0.00 63 1011.7
20260507205018 30 215 1.6 8.0 0.00 0.00 0.00 65 1012.0
20260507204516 30 254 3.2 14.5 0.00 0.00 0.00 68 1012.1
20260507204014 30 253 3.2 14.5 0.00 0.00 0.00 69 1012.3
20260507203521 29 166 1.6 14.5 0.00 0.00 0.00 68 1012.4
20260507203014 30 281 4.8 14.5 0.00 0.00 0.00 68 1012.6
20260507202510 30 248 1.6 6.4 0.00 0.00 0.00 69 1012.6
20260507202111 29 256 1.6 6.4 0.00 0.00 0.00 70 1012.6
20260507201510 28 259 0.0 9.7 0.00 0.00 0.00 70 1012.6
20260507201019 28 226 1.6 12.9 0.00 0.00 0.00 70 1012.6
20260507200512 28 224 3.2 12.9 0.00 0.00 0.00 70 1012.6
20260507200010 28 267 4.8 11.3 0.00 0.00 0.00 68 1012.5
20260507195507 29 235 3.2 11.3 0.00 0.00 0.00 69 1012.6
20260507195011 29 229 3.2 12.9 0.00 0.00 0.00 67 1012.9
20260507194504 29 275 3.2 14.5 0.00 0.00 0.00 68 1013.0
20260507194004 30 293 8.0 14.5 0.00 0.00 0.00 68 1013.1
20260507193513 30 241 1.6 14.5 0.00 0.00 0.00 67 1013.4
20260507193003 30 311 1.6 12.9 0.00 0.00 0.00 66 1013.6
20260507192607 30 245 3.2 12.9 0.00 0.00 0.00 65 1013.5
20260507192100 30 252 1.6 6.4 0.00 0.00 0.00 65 1013.6
20260507192002 30 313 1.6 6.4 0.00 0.00 0.00 64 1013.6
20260507191600 31 324 1.6 6.4 0.00 0.00 0.00 63 1013.8
20260507191058 31 278 1.6 9.7 0.00 0.00 0.00 60 1013.5
20260507190700 31 282 1.6 9.7 0.00 0.00 0.00 60 1013.4
20260507185559 31 316 1.6 9.7 0.00 0.00 0.00 60 1013.5
20260507185054 31 302 1.6 6.4 0.00 0.00 0.00 60 1013.6
20260507184554 31 233 1.6 8.0 0.00 0.00 0.00 59 1013.7
20260507184054 31 269 1.6 8.0 0.00 0.00 0.00 61 1013.8
20260507183551 31 327 1.6 9.7 0.00 0.00 0.00 59 1013.8
20260507183052 31 261 3.2 9.7 0.00 0.00 0.00 59 1013.8
20260507182552 31 269 1.6 8.0 0.00 0.00 0.00 58 1013.8
20260507182048 31 241 1.6 4.8 0.00 0.00 0.00 57 1013.9
20260507181552 31 251 0.0 4.8 0.00 0.00 0.00 57 1013.7
20260507181050 31 209 0.0 11.3 0.00 0.00 0.00 56 1013.8
20260507180549 31 319 1.6 11.3 0.00 0.00 0.00 54 1014.1
20260507180049 32 248 1.6 6.4 0.00 0.00 0.00 55 1014.2
20260507175545 32 320 0.0 4.8 0.00 0.00 0.00 53 1014.1
20260507175047 32 332 0.0 8.0 0.00 0.00 0.00 52 1014.1
20260507174550 33 230 0.0 8.0 0.00 0.00 0.00 53 1014.4
20260507174044 33 207 1.6 19.3 0.00 0.00 0.00 54 1014.4
20260507173546 33 283 8.0 19.3 0.00 0.00 0.00 53 1014.5
20260507173147 34 245 3.2 8.0 0.00 0.00 0.00 49 1014.5
20260507172544 34 310 0.0 8.0 0.00 0.00 0.00 53 1014.6
20260507172042 34 212 3.2 9.7 0.00 0.00 0.00 51 1014.4
20260507171550 34 288 1.6 9.7 0.00 0.00 0.00 52 1014.5
20260507171036 34 340 1.6 8.0 0.00 0.00 0.00 57 1014.6
20260507170538 33 137 0.0 8.0 0.00 0.00 0.00 57 1014.5
20260507170034 33 259 1.6 6.4 0.00 0.00 0.00 56 1014.6
20260507165533 33 143 1.6 8.0 0.00 0.00 0.00 60 1014.5
20260507165134 33 245 1.6 8.0 0.00 0.00 0.00 59 1014.5
20260507164530 32 281 1.6 8.0 0.00 0.00 0.00 59 1014.6
20260507164029 33 219 1.6 9.7 0.00 0.00 0.00 61 1014.4
20260507163528 33 236 3.2 11.3 0.00 0.00 0.00 61 1014.5
20260507163029 33 118 3.2 11.3 0.00 0.00 0.00 60 1014.5
20260507162528 33 335 1.6 6.4 0.00 0.00 0.00 61 1014.5
20260507162025 32 250 1.6 8.0 0.00 0.00 0.00 62 1014.6
20260507161524 32 120 3.2 8.0 0.00 0.00 0.00 61 1014.6
20260507161023 32 319 1.6 6.4 0.00 0.00 0.00 61 1014.8
20260507160518 32 219 0.0 8.0 0.00 0.00 0.00 61 1014.7
20260507160013 32 231 0.0 8.0 0.00 0.00 0.00 61 1014.8
20260507155511 32 238 1.6 8.0 0.00 0.00 0.00 64 1015.0
20260507155111 32 56 0.0 8.0 0.00 0.00 0.00 64 1015.0
20260507154515 31 274 1.6 14.5 0.00 0.00 0.00 64 1015.2
20260507154007 31 255 6.4 14.5 0.00 0.00 0.00 65 1015.1
20260507153505 31 245 3.2 8.0 0.00 0.00 0.00 65 1015.0
20260507153005 30 304 1.6 8.0 0.00 0.00 0.00 66 1014.9
20260507152508 30 275 1.6 6.4 0.00 0.00 0.00 66 1014.9
20260507152005 30 219 1.6 6.4 0.00 0.00 0.00 65 1014.8
20260507151501 30 238 0.0 6.4 0.00 0.00 0.00 70 1014.7
20260507151101 30 72 0.0 9.7 0.00 0.00 0.00 71 1014.7
20260507150559 30 257 3.2 9.7 0.00 0.00 0.00 67 1014.6
20260507150058 30 238 3.2 8.0 0.00 0.00 0.00 66 1014.4
20260507145559 30 315 1.6 4.8 0.00 0.00 0.00 67 1014.4
20260507145054 30 262 1.6 6.4 0.00 0.00 0.00 70 1014.4
20260507144615 29 233 1.6 6.4 0.00 0.00 0.00 70 1014.2
20260507144056 28 121 0.0 6.4 0.00 0.00 0.00 74 1014.2
20260507143550 28 66 1.6 8.0 0.00 0.00 0.00 72 1014.3
20260507143049 28 104 3.2 8.0 0.00 0.00 0.00 72 1014.5
20260507142547 28 256 0.0 4.8 0.00 0.00 0.00 75 1014.5
20260507142044 27 287 1.6 4.8 0.00 0.00 0.00 76 1014.6
20260507141543 27 229 0.0 3.2 0.00 0.00 0.00 76 1014.7
20260507141042 27 302 0.0 8.0 0.00 0.00 0.00 76 1014.6
20260507140537 27 199 0.0 6.4 0.00 0.00 0.00 76 1014.5
20260507135534 26 333 1.6 4.8 0.00 0.00 0.00 77 1014.7
20260507135033 26 308 0.0 6.4 0.00 0.00 0.00 80 1014.6
20260507134511 26 227 1.6 9.7 0.00 0.00 0.00 79 1014.8
20260507134010 26 124 0.0 9.7 0.00 0.00 0.00 80 1014.8
20260507133506 25 299 1.6 9.7 0.00 0.00 0.00 80 1014.6
20260507133005 25 258 0.0 9.7 0.00 0.00 0.00 81 1014.6
20260507132502 25 257 0.0 8.0 0.00 0.00 0.00 82 1014.8
20260507132002 25 232 0.0 3.2 0.00 0.00 0.00 82 1014.8
20260507131515 24 150 0.0 4.8 0.00 0.00 0.00 82 1014.8
20260507131055 24 103 1.6 4.8 0.00 0.00 0.00 82 1014.8
20260507130554 24 44 0.0 6.4 0.00 0.00 0.00 83 1014.7
20260507130105 23 68 0.0 6.4 0.00 0.00 0.00 83 1014.7
20260507125552 23 316 1.6 11.3 0.00 0.00 0.00 84 1014.6
20260507125048 23 170 1.6 11.3 0.00 0.00 0.00 84 1014.5
20260507124546 23 199 3.2 9.7 0.00 0.00 0.00 84 1014.5
20260507124144 23 240 1.6 9.7 0.00 0.00 0.00 85 1014.3
20260507123541 23 276 0.0 11.3 0.00 0.00 0.00 86 1014.2
20260507123038 22 212 3.2 11.3 0.00 0.00 0.00 86 1014.2
20260507122540 22 262 1.6 8.0 0.00 0.00 0.00 87 1014.2
20260507122037 22 181 0.0 6.4 0.00 0.00 0.00 87 1014.2
20260507121551 22 265 0.0 6.4 0.00 0.00 0.00 88 1014.2
20260507121037 22 221 0.0 6.4 0.00 0.00 0.00 89 1014.2
20260507120533 22 245 0.0 6.4 0.00 0.00 0.00 89 1014.2
20260507120040 22 186 0.0 1.6 0.00 0.00 0.00 90 1014.3
20260507115530 22 212 0.0 4.8 0.00 0.00 0.00 90 1014.3
20260507115032 21 240 0.0 1.6 0.00 0.00 0.00 90 1014.3
20260507114528 21 229 0.0 3.2 0.00 0.00 0.00 91 1014.3
20260507114032 21 152 0.0 3.2 0.00 0.00 0.00 91 1014.4
20260507113533 21 34 0.0 3.2 0.00 0.00 0.00 91 1014.3
20260507113027 21 34 0.0 3.2 0.00 0.00 0.00 91 1014.4
20260507112527 20 274 0.0 1.6 0.00 0.00 0.00 91 1014.3
20260507112028 20 268 0.0 0.0 0.00 0.00 0.00 91 1014.3
20260507111538 20 123 0.0 3.2 0.00 0.00 0.00 91 1014.2
20260507111025 20 112 0.0 3.2 0.00 0.00 0.00 91 1014.3
20260507110531 20 43 0.0 0.0 0.00 0.00 0.00 91 1014.4
20260507110126 20 43 0.0 1.6 0.00 0.00 0.00 91 1014.2
20260507105623 20 43 0.0 1.6 0.00 0.00 0.00 91 1014.0
20260507105021 20 42 0.0 0.0 0.00 0.00 0.00 90 1014.2
20260507104521 20 42 0.0 0.0 0.00 0.00 0.00 90 1014.2
20260507104023 20 42 0.0 0.0 0.00 0.00 0.00 90 1014.2
20260507103519 20 42 0.0 0.0 0.00 0.00 0.00 90 1014.2
20260507103020 20 42 0.0 0.0 0.00 0.00 0.00 90 1014.4
20260507102518 20 42 0.0 0.0 0.00 0.00 0.00 90 1014.2
20260507102018 20 42 0.0 0.0 0.00 0.00 0.00 90 1014.1
20260507101519 20 42 0.0 1.6 0.00 0.00 0.00 90 1014.2
20260507101016 20 42 0.0 1.6 0.00 0.00 0.00 90 1014.2
20260507100516 20 42 0.0 0.0 0.00 0.00 0.00 89 1014.0
20260507100017 20 42 0.0 0.0 0.00 0.00 0.00 89 1014.1
20260507095518 20 42 0.0 0.0 0.00 0.00 0.00 89 1014.1
20260507095011 21 42 0.0 0.0 0.00 0.00 0.00 89 1014.0
20260507094510 21 42 0.0 0.0 0.00 0.00 0.00 89 1013.9
20260507094014 21 42 0.0 0.0 0.00 0.00 0.00 88 1013.9
20260507093517 21 42 0.0 0.0 0.00 0.00 0.00 88 1014.0